DLH6YY EDDL-EDDF

Flight info

Callsign DLH6YY
Flight time 0h 37m
Altitude 21000
Route COL6T COL T911 ROLIS ROLIS5D
Aircraft A20N/M-SDE2E3FGIJ1LORWXYZ/HB1

Departure

Time 2026-05-04 01:57
Airport Düsseldorf Airport (EDDL)

Arrival

Time 2026-05-04 02:34
Airport Frankfurt Main Airport (EDDF)
Time Latitude Longitude Altitude Speed Heading
2026-05-04 01:33 51.28256 6.76731 118 ft 0 kts 224°
2026-05-04 01:47 51.28265 6.76747 114 ft 2 kts 247°
2026-05-04 01:47 51.28272 6.76771 113 ft 2 kts 257°
2026-05-04 01:48 51.28273 6.76797 114 ft 2 kts 271°
2026-05-04 01:48 51.28268 6.76821 115 ft 2 kts 301°
2026-05-04 01:48 51.28258 6.76842 113 ft 2 kts 328°
2026-05-04 01:48 51.28250 6.76847 115 ft 1 kts 352°
2026-05-04 01:49 51.28249 6.76848 115 ft 0 kts 356°
2026-05-04 01:51 51.28254 6.76848 115 ft 3 kts 358°
2026-05-04 01:51 51.28291 6.76855 116 ft 8 kts
2026-05-04 01:51 51.28350 6.76867 118 ft 4 kts 359°
2026-05-04 01:51 51.28387 6.76846 116 ft 8 kts 327°
2026-05-04 01:52 51.28445 6.76783 117 ft 12 kts 334°
2026-05-04 01:52 51.28512 6.76835 118 ft 13 kts 49°
2026-05-04 01:52 51.28577 6.76958 115 ft 17 kts 51°
2026-05-04 01:52 51.28655 6.77118 118 ft 20 kts 53°
2026-05-04 01:53 51.28741 6.77306 118 ft 22 kts 54°
2026-05-04 01:53 51.28841 6.77512 118 ft 25 kts 56°
2026-05-04 01:53 51.28948 6.77741 116 ft 26 kts 51°
2026-05-04 01:53 51.29060 6.77969 116 ft 25 kts 53°
2026-05-04 01:54 51.29158 6.78181 117 ft 22 kts 53°
2026-05-04 01:54 51.29237 6.78341 116 ft 0 kts 51°
2026-05-04 01:54 51.29247 6.78361 117 ft 5 kts 51°
2026-05-04 01:54 51.29279 6.78430 115 ft 10 kts 54°
2026-05-04 01:55 51.29331 6.78534 116 ft 14 kts 45°
2026-05-04 01:55 51.29409 6.78571 117 ft 10 kts 359°
2026-05-04 01:55 51.29489 6.78555 115 ft 12 kts 328°
2026-05-04 01:55 51.29494 6.78435 115 ft 14 kts 240°
2026-05-04 01:56 51.29469 6.78367 118 ft 2 kts 239°
2026-05-04 01:56 51.29466 6.78358 118 ft 0 kts 237°
2026-05-04 01:56 51.29420 6.78260 114 ft 42 kts 232°
2026-05-04 01:56 51.29088 6.77575 116 ft 111 kts 233°
2026-05-04 01:57 51.28520 6.76374 232 ft 149 kts 231°
2026-05-04 01:57 51.27908 6.75021 795 ft 154 kts 231°
2026-05-04 01:57 51.27282 6.73649 1495 ft 152 kts 234°
2026-05-04 01:57 51.26665 6.72288 2202 ft 152 kts 236°
2026-05-04 01:58 51.26003 6.70858 2670 ft 170 kts 235°
2026-05-04 01:58 51.25239 6.69244 3062 ft 196 kts 234°
2026-05-04 01:58 51.24371 6.67408 3666 ft 218 kts 234°
2026-05-04 01:58 51.23383 6.65393 4388 ft 241 kts 227°
2026-05-04 01:59 51.21935 6.63915 5292 ft 256 kts 200°
2026-05-04 01:59 51.20157 6.63631 6480 ft 262 kts 178°
2026-05-04 01:59 51.18296 6.63947 7627 ft 266 kts 177°
2026-05-04 01:59 51.16450 6.64363 8778 ft 272 kts 168°
2026-05-04 02:00 51.14735 6.65733 9906 ft 284 kts 144°
2026-05-04 02:00 51.13440 6.68240 10654 ft 310 kts 121°
2026-05-04 02:00 51.12792 6.71672 11121 ft 341 kts 98°
2026-05-04 02:00 51.12835 6.75559 11694 ft 362 kts 86°
2026-05-04 02:01 51.13145 6.79519 12619 ft 367 kts 84°
2026-05-04 02:01 51.13461 6.83603 13561 ft 373 kts 85°
2026-05-04 02:01 51.13716 6.87793 14410 ft 379 kts 87°
2026-05-04 02:01 51.13913 6.91952 15227 ft 384 kts 89°
2026-05-04 02:02 51.14084 6.96286 16059 ft 389 kts 89°
2026-05-04 02:02 51.14241 7.00626 16876 ft 395 kts 89°
2026-05-04 02:02 51.14393 7.05022 17681 ft 400 kts 90°
2026-05-04 02:02 51.14349 7.09450 18428 ft 403 kts 99°
2026-05-04 02:03 51.13915 7.13815 19166 ft 402 kts 107°
2026-05-04 02:03 51.13219 7.18179 19879 ft 406 kts 108°
2026-05-04 02:03 51.12483 7.22557 20468 ft 409 kts 114°
2026-05-04 02:03 51.11231 7.26523 20619 ft 399 kts 130°
2026-05-04 02:04 51.09368 7.29694 20748 ft 389 kts 147°
2026-05-04 02:04 51.07107 7.32039 20875 ft 385 kts 155°
2026-05-04 02:04 51.04784 7.34138 20981 ft 385 kts 156°
2026-05-04 02:04 51.02451 7.36240 20990 ft 386 kts 155°
2026-05-04 02:05 51.00129 7.38395 20991 ft 386 kts 154°
2026-05-04 02:05 50.97824 7.40588 20989 ft 386 kts 154°
2026-05-04 02:05 50.95535 7.42797 20992 ft 388 kts 154°
2026-05-04 02:05 50.93228 7.45033 20991 ft 388 kts 153°
2026-05-04 02:06 50.90935 7.47258 20993 ft 387 kts 153°
2026-05-04 02:06 50.88630 7.49492 20994 ft 388 kts 153°
2026-05-04 02:06 50.86321 7.51725 20992 ft 388 kts 153°
2026-05-04 02:06 50.84019 7.53950 20995 ft 388 kts 153°
2026-05-04 02:07 50.81716 7.56171 20995 ft 389 kts 153°
2026-05-04 02:07 50.79365 7.58432 20995 ft 389 kts 154°
2026-05-04 02:07 50.76971 7.60365 20997 ft 385 kts 161°
2026-05-04 02:07 50.74551 7.61963 20986 ft 385 kts 162°
2026-05-04 02:08 50.72046 7.63622 20761 ft 382 kts 162°
2026-05-04 02:08 50.69596 7.65249 20425 ft 384 kts 161°
2026-05-04 02:08 50.67125 7.66890 20051 ft 383 kts 161°
2026-05-04 02:08 50.64686 7.68511 19683 ft 380 kts 161°
2026-05-04 02:09 50.62249 7.70129 19326 ft 378 kts 161°
2026-05-04 02:09 50.59825 7.71736 18804 ft 376 kts 161°
2026-05-04 02:09 50.57425 7.73326 18157 ft 373 kts 161°
2026-05-04 02:09 50.55057 7.74893 17443 ft 369 kts 161°
2026-05-04 02:10 50.52700 7.76452 16733 ft 363 kts 161°
2026-05-04 02:10 50.50381 7.77984 16047 ft 359 kts 161°
2026-05-04 02:10 50.48097 7.79490 15375 ft 354 kts 161°
2026-05-04 02:10 50.45827 7.80984 14728 ft 354 kts 161°
2026-05-04 02:11 50.43572 7.82709 14073 ft 357 kts 153°
2026-05-04 02:11 50.41542 7.84883 13398 ft 360 kts 146°
2026-05-04 02:11 50.39610 7.87317 12933 ft 350 kts 145°
2026-05-04 02:11 50.37711 7.89702 12174 ft 342 kts 145°
2026-05-04 02:12 50.35883 7.91978 11366 ft 339 kts 146°
2026-05-04 02:12 50.34051 7.94250 10793 ft 330 kts 146°
2026-05-04 02:12 50.32308 7.96413 10593 ft 310 kts 146°
2026-05-04 02:12 50.30672 7.98441 10361 ft 293 kts 146°
2026-05-04 02:13 50.29108 8.00375 10176 ft 286 kts 146°
2026-05-04 02:13 50.27530 8.02352 10075 ft 295 kts 141°
2026-05-04 02:13 50.26288 8.04931 10023 ft 299 kts 120°
2026-05-04 02:13 50.25643 8.08046 10023 ft 305 kts 107°
2026-05-04 02:14 50.25146 8.11255 10025 ft 305 kts 107°
2026-05-04 02:14 50.24636 8.14483 10025 ft 304 kts 107°
2026-05-04 02:14 50.24123 8.17690 10028 ft 305 kts 107°
2026-05-04 02:14 50.23604 8.20910 10029 ft 305 kts 107°
2026-05-04 02:15 50.23085 8.24116 10030 ft 305 kts 107°
2026-05-04 02:15 50.22566 8.27316 10034 ft 305 kts 107°
2026-05-04 02:15 50.22042 8.30535 10034 ft 305 kts 108°
2026-05-04 02:15 50.21523 8.33719 10034 ft 305 kts 108°
2026-05-04 02:16 50.20895 8.36839 10034 ft 301 kts 121°
2026-05-04 02:16 50.19600 8.39347 10036 ft 291 kts 147°
2026-05-04 02:16 50.17839 8.40759 10034 ft 285 kts 164°
2026-05-04 02:16 50.15967 8.41773 10039 ft 283 kts 166°
2026-05-04 02:17 50.14064 8.42449 10030 ft 276 kts 182°
2026-05-04 02:17 50.12212 8.41955 9787 ft 269 kts 206°
2026-05-04 02:17 50.10692 8.40357 9355 ft 264 kts 228°
2026-05-04 02:17 50.09734 8.37951 8928 ft 263 kts 249°
2026-05-04 02:18 50.09117 8.35292 8520 ft 261 kts 249°
2026-05-04 02:18 50.08488 8.32634 8097 ft 260 kts 249°
2026-05-04 02:18 50.07855 8.30002 7702 ft 258 kts 249°
2026-05-04 02:18 50.07222 8.27396 7300 ft 257 kts 249°
2026-05-04 02:19 50.06591 8.24809 6913 ft 256 kts 249°
2026-05-04 02:19 50.05960 8.22230 6519 ft 254 kts 249°
2026-05-04 02:19 50.05332 8.19663 6226 ft 250 kts 249°
2026-05-04 02:19 50.04700 8.17079 6094 ft 256 kts 249°
2026-05-04 02:20 50.04071 8.14508 6044 ft 253 kts 249°
2026-05-04 02:20 50.03444 8.11942 6038 ft 254 kts 249°
2026-05-04 02:20 50.02819 8.09388 6032 ft 253 kts 249°
2026-05-04 02:20 50.02191 8.06819 6038 ft 255 kts 249°
2026-05-04 02:21 50.01564 8.04249 6026 ft 254 kts 249°
2026-05-04 02:21 50.00936 8.01677 6027 ft 254 kts 249°
2026-05-04 02:21 50.00317 7.99148 6022 ft 254 kts 249°
2026-05-04 02:21 49.99681 7.96553 6022 ft 254 kts 249°
2026-05-04 02:22 49.99055 7.94003 5967 ft 252 kts 249°
2026-05-04 02:22 49.98439 7.91493 5718 ft 253 kts 249°
2026-05-04 02:22 49.97802 7.88904 5456 ft 252 kts 249°
2026-05-04 02:22 49.97154 7.86401 5208 ft 253 kts 242°
2026-05-04 02:23 49.95996 7.84326 4953 ft 254 kts 217°
2026-05-04 02:23 49.94359 7.83299 4705 ft 260 kts 191°
2026-05-04 02:23 49.92571 7.83544 4452 ft 265 kts 164°
2026-05-04 02:23 49.90862 7.84563 4190 ft 257 kts 162°
2026-05-04 02:24 49.89249 7.85622 4008 ft 243 kts 152°
2026-05-04 02:24 49.88073 7.87353 3980 ft 228 kts 123°
2026-05-04 02:24 49.87581 7.89581 3983 ft 214 kts 95°
2026-05-04 02:24 49.87773 7.91776 4011 ft 204 kts 69°
2026-05-04 02:25 49.88341 7.93820 3988 ft 205 kts 64°
2026-05-04 02:25 49.88918 7.95859 3995 ft 211 kts 66°
2026-05-04 02:25 49.89450 7.97941 3994 ft 211 kts 69°
2026-05-04 02:25 49.89802 7.99390 3995 ft 211 kts 69°
2026-05-04 02:26 49.90473 8.02189 3998 ft 211 kts 69°
2026-05-04 02:26 49.90826 8.03661 4002 ft 211 kts 69°
2026-05-04 02:26 49.91336 8.05789 4002 ft 211 kts 69°
2026-05-04 02:26 49.91850 8.07925 4005 ft 211 kts 69°
2026-05-04 02:27 49.92365 8.10071 4011 ft 212 kts 69°
2026-05-04 02:27 49.92871 8.12180 4007 ft 211 kts 69°
2026-05-04 02:27 49.93554 8.15024 4012 ft 211 kts 69°
2026-05-04 02:27 49.93902 8.16476 4014 ft 211 kts 69°
2026-05-04 02:28 49.94408 8.18587 4011 ft 205 kts 69°
2026-05-04 02:28 49.94890 8.20596 4022 ft 194 kts 69°
2026-05-04 02:28 49.95363 8.22567 4019 ft 196 kts 69°
2026-05-04 02:28 49.95838 8.24548 4020 ft 194 kts 69°
2026-05-04 02:29 49.96286 8.26419 3954 ft 177 kts 69°
2026-05-04 02:29 49.96705 8.28166 3757 ft 167 kts 69°
2026-05-04 02:29 49.97096 8.29798 3554 ft 155 kts 69°
2026-05-04 02:29 49.97460 8.31318 3372 ft 158 kts 69°
2026-05-04 02:30 49.97847 8.32930 3156 ft 158 kts 69°
2026-05-04 02:30 49.98229 8.34525 2940 ft 158 kts 69°
2026-05-04 02:30 49.98619 8.36154 2728 ft 157 kts 69°
2026-05-04 02:30 49.98993 8.37717 2525 ft 157 kts 70°
2026-05-04 02:31 49.99376 8.39316 2302 ft 156 kts 70°
2026-05-04 02:31 49.99754 8.40894 2097 ft 155 kts 70°
2026-05-04 02:31 50.00133 8.42476 1880 ft 150 kts 70°
2026-05-04 02:31 50.00477 8.43913 1683 ft 139 kts 71°
2026-05-04 02:32 50.00808 8.45294 1473 ft 133 kts 70°
2026-05-04 02:32 50.01124 8.46617 1284 ft 129 kts 71°
2026-05-04 02:32 50.01422 8.47898 1078 ft 126 kts 71°
2026-05-04 02:32 50.01708 8.49143 954 ft 124 kts 70°
2026-05-04 02:33 50.02022 8.50450 815 ft 125 kts 69°
2026-05-04 02:33 50.02330 8.51701 644 ft 124 kts 69°
2026-05-04 02:33 50.02636 8.52964 419 ft 123 kts 69°
2026-05-04 02:33 50.02939 8.54179 333 ft 118 kts 70°
2026-05-04 02:34 50.03170 8.55162 346 ft 71 kts 69°
2026-05-04 02:34 50.03280 8.55623 351 ft 4 kts 62°
2026-05-04 02:34 50.03295 8.55652 342 ft 7 kts 50°
2026-05-04 02:34 50.03346 8.55735 347 ft 14 kts 45°
2026-05-04 02:35 50.03432 8.55851 350 ft 19 kts 42°
2026-05-04 02:35 50.03491 8.55930 350 ft 1 kts 38°
2026-05-04 02:35 50.03527 8.55974 358 ft 11 kts 38°
2026-05-04 02:35 50.03598 8.56062 353 ft 15 kts 39°
2026-05-04 02:36 50.03666 8.56193 357 ft 17 kts 61°
2026-05-04 02:36 50.03712 8.56388 359 ft 21 kts 71°
2026-05-04 02:36 50.03766 8.56628 356 ft 25 kts 71°
2026-05-04 02:36 50.03831 8.56896 360 ft 28 kts 69°
2026-05-04 02:37 50.03901 8.57188 364 ft 29 kts 69°
2026-05-04 02:37 50.03969 8.57462 368 ft 25 kts 69°
2026-05-04 02:37 50.03984 8.57524 367 ft 3 kts 69°
2026-05-04 02:37 50.03999 8.57581 369 ft 8 kts 69°
2026-05-04 02:38 50.04021 8.57677 365 ft 11 kts 70°
2026-05-04 02:38 50.04053 8.57815 366 ft 15 kts 71°
2026-05-04 02:38 50.04092 8.57992 368 ft 19 kts 69°
2026-05-04 02:38 50.04165 8.58149 367 ft 15 kts 21°
2026-05-04 02:39 50.04276 8.58205 366 ft 18 kts 352°
2026-05-04 02:39 50.04405 8.58134 369 ft 21 kts 340°
2026-05-04 02:39 50.04490 8.58087 368 ft 11 kts 339°
2026-05-04 02:39 50.04564 8.58119 363 ft 13 kts 54°
2026-05-04 02:40 50.04595 8.58240 367 ft 12 kts 70°
2026-05-04 02:40 50.04629 8.58373 368 ft 15 kts 69°
2026-05-04 02:40 50.04669 8.58544 369 ft 18 kts 71°
2026-05-04 02:40 50.04701 8.58693 368 ft 0 kts 70°
2026-05-04 02:41 50.04714 8.58720 369 ft 6 kts 46°
2026-05-04 02:41 50.04774 8.58746 370 ft 12 kts 348°
2026-05-04 02:41 50.04854 8.58698 366 ft 0 kts 341°
2026-05-04 02:41 50.04879 8.58684 363 ft 8 kts 341°
2026-05-04 02:42 50.04949 8.58691 363 ft 12 kts 50°
2026-05-04 02:42 50.04966 8.58734 359 ft 2 kts 62°
2026-05-04 02:42 50.04979 8.58786 366 ft 7 kts 67°
2026-05-04 02:42 50.04986 8.58818 363 ft 1 kts 73°
2026-05-04 02:43 50.04990 8.58837 363 ft 0 kts 71°
2026-05-04 02:43 50.04996 8.58868 361 ft 6 kts 76°
2026-05-04 02:43 50.04971 8.58917 360 ft 6 kts 156°
2026-05-04 02:43 50.04948 8.58931 368 ft 1 kts 160°
2026-05-04 02:44 50.04940 8.58936 361 ft 1 kts 160°
2026-05-04 02:44 50.04931 8.58940 362 ft 2 kts 159°
2026-05-04 02:44 50.04926 8.58944 364 ft 0 kts 159°